NIMBUS 2 DEB, 28620

Orbit data source: Space-Track

NIMBUS 2 DEB, 28620 is space debris in SSO originally from a launch on Sun, 15 May 1966 UTC launched from the Air Force Western Test Range (AFWTR). Debris objects in space refer to the collection of defunct objects orbiting the Earth. Examples of debris include non-operational satellites, rocket bodies, and fragments generated from explosions, collisions, or faulty payload assembly.

Loading next visibility...
Identifier
28620, 1966-040AK
Orbit
SSO
Country
Flag of USUS
Related business
Manufacturer
Unknown
Mission
Spacecraft
Bus & Motor
Unknown
Mass
Unknown
Launch date (UTC)
1966-05-15 (59 years ago)
Launch vehicle
Unknown
Launch site
Air Force Western Test Range (AFWTR)
Object type
Payload
Rocket body
Debris
Shape & HBR
Unknown
Radar Cross Section
Small (<0.1 m²)

Expand to show TLE details & history
Last TLE update: 1 day ago

TLE from 1 day ago
0 NIMBUS 2 DEB
1 28620U 66040AK  25259.92481545  .00002163  00000-0  33979-2 0  9990
2 28620 100.4406 152.9675 0042486 327.4517  92.5392 13.51094026 14290
Epoch: 2025-09-16T22:11Z
TLE epoch observation values (Epoch: 2025-09-16T22:11:44.054Z)
Latitude
58.93877°
Longitude
166.20616°
Altitude
1,079.635 km
Speed
7.317 km/s
True Right ascension
09h 00m 59s
True Declination
58° 47' 35"
Sunlit
Object was in daylight at epoch
Visualization orbit readout
Latitude
Unknown
Longitude
Unknown
Altitude
Unknown
Speed
Unknown
Apparent Right ascension
Unknown
Apparent Declination
Unknown
Sunlit
N/A
Visualization observer readout
Local Sidereal Time
16:07:19
Azimuth
Unknown
Elevation
Unknown
Doppler factor
Unknown
Orbital elements
Apogee altitude
1,097.201 km
Perigee altitude
1,033.95 km
Semi-major axis
7,443.712 km
Eccentricity
0.00425
Inclination
100.4406°
RAAN
152.9675°
Arg. of periapsis
327.4517°
True anomaly
93.02546°
Mean anomaly
92.5392°
Eccentric anomaly
92.78234°
Mean motion
3.37955 °/min
Orbital period
106.52 mins
BSTAR
0.0033979
Loading maneuver chart data...
Computing Atmospheric mass density...
Loading historical data...
Loading historical data...
Loading historical data...
Loading historical data...
Loading historical data...
Loading historical data...
Loading historical data...

Documentation

Showing up to 5 results
|